GFSNGP_prec_cthk_123.txt.gz
RH
59 51 38 36 34 53 71 72 80 74 86 82 81 84 88 94 97 97 97 96 96 96 96 96 96 97 97 97 97 96 96 95 92 92 95 95 93 92 86 81 81 82 77 64
61 40 39 48 41 48 57 59 65 69 75 75 84 90 96 97 97 97 97 95 93 90 87 87 89 88 91 94 96 97 96 97 97 98 97 97 97 99 97 96 98 93 92 88
55 48 59 62 64 65 63 67 72 82 81 88 92 96 97 97 97 97 92 83 72 60 57 53 55 53 53 50 55 66 76 90 96 97 96 97 98 98 98 96 98 98 97 96
54 58 75 64 70 72 75 80 88 93 94 94 95 97 96 96 95 87 78 66 56 48 45 40 36 32 27 25 25 25 29 36 52 62 68 76 84 90 96 96 96 96 97 98
68 77 68 73 74 78 82 88 87 91 91 92 96 96 97 95 85 75 60 54 47 40 35 31 24 22 18 17 17 19 19 16 22 30 39 46 47 51 59 65 71 79 82 85
80 88 89 83 85 80 79 87 85 86 87 90 92 95 96 91 74 57 47 41 36 33 29 24 23 21 18 19 19 19 19 16 14 13 16 23 32 34 35 36 40 43 44 48
83 90 78 70 75 82 89 82 84 87 86 89 90 94 90 79 59 45 39 35 31 24 23 23 23 21 18 19 17 19 16 15 12 11 10 10 11 15 20 22 26 29 31 35
78 93 85 73 77 86 86 84 83 86 87 89 88 90 82 67 52 42 36 30 24 22 22 21 21 19 19 18 19 17 16 15 15 13 12 11 11 10 10 9 10 13 17 19
82 79 83 84 87 84 84 85 84 86 87 86 87 85 73 60 46 39 33 28 25 23 21 20 19 17 18 20 18 17 16 17 16 16 15 14 13 12 11 10 10 9 9 9
82 81 87 89 86 85 87 86 83 89 87 85 80 77 69 56 43 37 33 29 26 24 23 23 22 21 20 20 21 20 19 20 20 21 21 20 18 17 15 16 14 11 11 11
71 69 73 72 78 84 87 88 84 90 88 79 76 74 65 51 38 34 30 28 27 25 24 24 22 19 17 17 19 22 24 22 22 23 24 25 25 25 24 23 20 18 15 18
66 60 64 76 83 85 85 89 86 88 85 78 73 67 56 47 40 34 30 27 25 25 23 22 21 19 18 17 17 18 19 19 19 19 21 21 22 22 26 25 24 23 18 18
65 64 70 76 88 89 92 92 89 90 85 76 69 60 54 45 39 33 29 26 26 24 22 20 19 19 21 21 18 18 21 23 21 21 23 24 24 22 23 23 24 24 21 20
68 68 74 78 90 93 95 95 93 92 83 74 68 64 51 43 36 34 28 25 26 23 21 20 18 19 19 18 19 18 19 21 22 21 21 22 24 24 23 22 22 22 20 20
58 71 74 81 95 97 97 97 93 91 81 74 70 60 48 39 35 31 27 26 26 24 23 23 21 19 19 19 19 21 21 22 23 22 22 24 24 24 24 23 23 22 21 19
62 73 82 86 96 97 97 96 93 85 78 75 71 59 47 40 34 29 26 25 27 26 22 19 20 22 19 20 22 26 26 26 27 27 27 26 26 26 26 26 24 24 24 23
65 79 86 90 96 97 97 95 92 82 80 79 72 56 45 35 33 30 28 28 26 23 22 20 19 19 20 23 26 29 28 28 30 31 30 29 29 30 30 32 32 31 29 28
68 78 85 93 96 97 97 97 95 90 86 81 69 53 42 36 33 29 29 28 25 22 21 21 21 21 22 25 28 28 29 30 31 32 32 30 32 35 36 38 38 38 37 37
73 81 91 97 97 97 97 97 95 93 90 81 67 50 39 38 31 30 27 25 26 24 24 23 24 25 25 25 26 30 32 30 32 33 32 32 32 34 36 37 39 40 38 38
78 86 95 97 97 97 97 97 96 96 93 78 61 47 37 36 32 28 27 28 27 26 26 27 29 30 28 25 25 29 33 35 38 36 35 35 35 36 34 34 37 39 40 40
89 90 97 97 97 97 97 97 97 97 90 77 58 44 37 33 31 30 30 33 37 31 30 32 31 30 31 27 27 34 39 42 41 39 39 39 38 35 35 36 36 36 38 39
94 95 97 98 97 97 97 97 97 97 85 70 53 43 37 35 34 37 43 42 35 35 31 30 33 34 32 31 34 40 45 44 43 43 42 40 39 38 38 37 35 36 36 36
97 97 98 97 97 97 97 97 97 92 79 60 46 40 37 35 37 40 41 38 40 35 31 31 33 35 37 40 44 46 45 45 44 43 43 41 40 40 38 37 36 35 34 33
96 97 97 98 98 97 97 97 92 80 63 47 41 39 39 40 44 46 45 42 41 37 34 36 42 47 51 48 47 44 47 46 43 41 41 41 38 35 35 34 32 31 31 32
95 95 92 91 90 92 93 91 82 70 56 47 41 44 45 44 43 44 45 43 38 38 44 54 59 57 50 46 44 48 48 45 41 42 40 37 35 34 32 30 30 30 31 32
97 96 95 94 91 89 87 82 73 60 51 41 40 44 45 46 46 45 47 50 56 60 63 66 64 56 52 53 52 49 45 43 42 40 37 36 34 32 31 30 31 31 34 37
97 97 97 96 93 89 84 79 72 61 48 40 37 41 45 53 60 65 70 71 72 71 70 64 59 59 58 53 51 47 45 43 40 38 36 34 33 32 32 32 34 37 40 43

GFSNGP_prec_cthk_129.txt.gz
RH
48 53 57 52 54 64 70 59 65 41 42 41 52 66 76 78 73 75 85 90 87 80 76 64 58 55 51 53 60 72 91 97 97 97 97 97 97 98 97 93 87 83 80 81
59 59 60 57 58 57 53 42 42 46 38 41 54 67 76 80 83 88 90 87 80 66 57 51 40 33 32 33 38 42 38 45 60 80 93 91 90 91 92 93 90 87 84 88
65 61 59 66 55 50 53 46 50 58 48 54 66 74 86 90 91 92 88 78 65 55 45 42 33 30 23 20 20 21 26 23 23 28 31 34 44 56 62 67 74 78 81 85
72 65 74 52 48 47 51 56 64 62 72 74 84 92 92 95 93 90 78 69 58 48 39 35 31 23 21 19 15 12 12 13 18 16 16 19 21 21 22 26 30 35 47 64
79 78 66 50 46 47 67 67 69 74 80 86 92 94 94 95 94 84 72 63 53 44 38 29 25 25 21 15 14 13 13 12 12 12 12 12 11 11 12 15 16 19 20 22
93 93 82 52 59 68 71 74 72 74 79 83 87 91 91 94 90 77 67 54 43 34 29 32 27 17 15 15 16 15 14 14 13 13 12 12 12 11 11 11 11 10 10 11
84 81 62 40 50 68 75 66 71 75 77 82 86 88 89 93 86 72 55 44 41 38 31 22 18 18 16 16 16 17 17 16 16 14 14 12 12 12 12 11 11 11 11 11
86 94 81 54 54 66 67 73 75 77 77 82 87 91 91 88 80 61 49 44 33 25 23 20 19 18 17 16 19 18 16 16 16 16 15 14 13 12 12 12 12 12 12 12
85 77 74 66 62 61 72 78 78 76 79 79 87 91 89 87 68 47 38 31 25 23 20 22 22 20 17 18 19 19 17 16 16 16 16 16 15 15 15 15 15 15 15 13
82 78 79 71 64 65 67 70 75 77 76 81 85 89 83 74 59 47 40 32 26 23 21 21 20 19 20 19 19 17 16 17 17 17 19 19 19 17 16 18 19 18 18 18
94 83 80 75 72 64 58 63 71 74 76 81 85 87 82 74 57 44 38 28 25 23 22 21 20 18 19 19 18 17 17 19 19 20 20 20 21 23 20 21 24 23 22 22
82 74 74 69 60 54 54 56 66 72 75 84 86 88 83 73 56 44 38 29 27 25 24 23 20 19 18 19 19 18 19 19 19 18 18 19 19 19 21 25 26 25 25 23
71 72 70 63 56 53 54 57 62 68 77 86 90 91 84 73 57 44 39 32 28 26 26 26 23 21 19 20 19 19 19 19 19 20 22 23 24 23 22 22 22 23 23 27
60 52 48 49 49 51 55 60 64 71 82 90 94 91 84 74 59 46 41 35 31 29 29 28 27 23 21 19 19 19 20 21 24 27 28 25 23 24 25 26 26 25 24 24
40 40 42 42 44 48 56 66 71 77 88 97 96 90 83 72 57 50 45 40 35 32 30 28 28 26 22 21 22 24 26 27 29 27 25 25 25 26 28 30 29 28 26 23
36 39 43 46 50 56 63 72 78 85 92 97 94 90 81 69 59 52 48 41 38 34 31 30 29 26 23 24 25 26 24 26 25 25 25 26 28 30 33 34 32 31 29 27
31 37 41 49 56 65 78 85 89 93 96 97 96 90 81 72 62 54 48 42 39 38 35 31 30 27 25 27 27 25 25 25 26 27 26 29 32 34 36 36 34 32 31 30
34 37 42 52 61 69 84 95 97 97 97 97 97 91 82 72 59 51 47 44 41 40 38 32 31 29 28 26 27 26 26 27 27 27 28 33 37 39 41 38 33 32 32 31
41 43 51 66 70 78 91 97 97 97 97 97 97 92 84 74 61 54 48 47 45 42 39 34 32 31 29 27 26 27 29 29 29 30 34 40 41 43 42 37 35 35 34 33
50 64 72 84 79 85 95 97 97 97 97 97 97 93 85 74 64 55 48 45 43 43 42 37 35 34 31 31 30 30 32 34 32 37 45 46 47 43 40 38 36 34 32 32
74 82 88 93 86 88 97 97 97 97 97 97 97 96 87 75 60 52 47 47 46 44 42 39 39 37 36 36 38 38 37 36 45 54 52 50 46 43 40 36 34 33 34 35
78 84 88 91 89 93 97 98 97 97 97 97 97 96 85 72 60 55 49 48 46 46 44 43 44 45 50 49 45 43 42 57 62 57 55 49 44 40 38 37 38 38 38 36
80 86 90 90 91 96 97 98 98 97 97 97 97 92 82 67 57 51 49 48 51 52 52 52 55 55 50 48 47 51 68 64 58 55 50 46 44 43 41 41 41 40 38 37
82 87 92 92 95 96 97 98 98 98 97 97 97 87 73 66 60 54 52 55 58 58 59 57 53 52 50 52 69 71 62 57 57 52 48 47 46 43 43 43 42 41 39 37
85 90 91 95 95 96 97 98 98 98 98 97 92 83 77 65 56 54 55 57 58 58 59 57 53 53 72 82 73 63 60 58 53 50 50 47 45 46 45 43 43 40 38 37
88 95 95 95 96 97 97 97 98 98 98 97 93 78 60 52 50 54 59 62 61 59 56 58 74 88 84 72 64 60 57 55 53 51 49 48 48 46 45 44 41 40 39 36
89 95 97 97 97 97 97 98 98 98 98 95 75 67 61 57 56 55 55 56 59 67 79 89 87 81 71 65 62 59 57 54 53 51 50 49 46 46 44 43 42 40 37 35

GFSNGP_prec_cthk_132.txt.gz
RH
66 64 69 60 54 57 60 46 66 46 55 40 39 42 39 46 58 72 78 83 82 78 75 66 58 50 40 42 38 38 40 41 50 69 77 83 86 93 97 95 94 94 95 94
69 71 72 64 56 54 47 51 52 51 45 32 40 50 52 58 68 77 84 85 80 73 62 50 39 34 28 28 33 28 25 27 28 31 33 35 38 45 55 65 73 78 83 86
87 77 73 61 49 46 47 45 50 56 45 55 60 67 69 75 79 86 88 80 73 63 53 47 38 29 23 20 22 22 22 21 17 19 20 20 23 23 23 26 30 37 47 59
78 71 70 45 42 48 55 50 50 46 56 61 71 76 83 89 89 93 86 72 62 54 46 39 33 25 22 22 17 16 12 12 12 12 12 12 11 11 11 13 15 18 20 21
80 75 61 48 53 61 59 45 53 59 68 73 77 81 87 89 92 90 74 65 58 52 45 39 28 27 27 20 16 14 14 14 13 13 13 13 12 12 11 10 10 9 8 8
86 88 77 57 64 57 63 61 63 65 71 76 79 85 84 88 91 84 72 63 54 49 39 29 34 27 18 16 14 15 16 15 14 14 14 14 13 12 12 11 10 10 10 9
85 85 70 62 61 58 54 51 58 67 72 74 78 79 81 87 87 78 69 59 51 41 34 37 28 19 16 15 15 18 18 16 15 14 14 13 13 13 13 12 11 11 10 10
80 91 87 64 70 64 49 57 68 72 73 74 75 78 83 88 84 77 61 50 44 39 38 29 20 19 16 16 18 18 18 17 16 15 15 14 14 15 14 14 13 12 11 11
74 82 74 71 68 69 63 63 66 70 74 75 75 78 84 88 83 70 54 50 47 39 28 22 21 19 17 17 19 18 17 17 16 15 16 16 17 17 17 17 15 15 14 13
81 75 78 74 75 75 68 66 66 65 67 74 74 80 85 86 81 65 52 46 40 33 27 21 22 20 18 19 19 18 17 16 17 18 17 18 18 18 18 20 19 18 17 17
86 78 84 82 77 73 72 70 63 57 61 69 74 77 83 85 77 60 52 46 36 29 25 22 21 21 20 20 19 17 17 17 18 19 18 19 18 19 21 24 26 25 23 20
87 79 80 74 70 71 70 65 58 56 59 65 73 75 82 83 76 60 46 46 37 33 28 22 22 21 21 20 19 18 18 18 18 19 19 19 20 22 24 26 27 29 30 27
81 74 71 70 71 70 62 54 53 54 59 63 71 79 82 84 77 62 51 46 38 33 28 24 22 22 21 20 20 20 20 19 19 20 20 22 26 26 26 25 25 25 26 31
62 65 65 65 60 52 47 45 47 53 59 65 70 77 82 87 80 65 51 44 38 36 32 30 27 25 25 25 24 23 21 20 21 21 24 28 29 27 28 28 28 28 28 29
47 45 42 41 41 41 41 43 46 54 63 70 76 83 86 89 84 66 54 48 43 38 36 33 31 29 28 28 28 25 24 22 22 26 28 27 28 28 29 30 30 30 31 30
37 36 36 36 38 41 46 51 57 63 70 76 83 91 96 95 84 64 57 53 47 40 40 38 33 31 30 30 30 28 25 24 26 29 26 27 28 29 31 33 34 34 35 33
33 32 31 31 35 41 50 58 65 74 83 86 92 97 97 96 74 65 60 57 50 46 41 41 39 34 32 31 31 31 29 29 30 28 28 27 29 33 35 37 38 38 38 36
36 34 33 35 39 46 59 67 72 83 89 96 97 98 97 85 77 71 65 57 50 47 45 43 41 39 37 34 32 32 32 32 31 31 29 29 33 39 42 43 41 42 38 36
39 41 42 45 52 58 75 77 82 92 96 97 97 97 96 88 82 73 61 54 48 48 48 46 44 42 41 38 35 34 34 34 34 32 30 36 44 47 48 46 45 42 40 37
42 42 49 61 72 81 88 81 88 94 97 97 97 97 97 87 80 71 61 55 50 49 50 50 50 49 45 45 40 37 37 38 36 39 45 51 51 51 50 47 44 41 37 35
51 58 66 73 81 86 90 85 93 97 97 97 97 97 96 90 83 72 63 60 55 50 50 51 52 50 48 47 45 43 42 46 47 48 56 56 55 52 48 45 42 41 39 37
60 66 70 76 82 83 87 91 97 98 98 98 97 97 97 91 85 77 68 59 56 56 55 54 53 53 52 51 49 51 53 49 52 60 60 59 54 49 46 45 44 41 39 38
64 69 74 80 87 88 91 94 96 97 97 97 98 97 97 94 84 70 64 59 59 53 54 56 57 57 57 56 59 53 50 59 65 62 61 55 50 48 48 46 43 41 42 42
67 71 76 83 88 90 94 95 97 98 98 98 98 98 97 91 78 68 65 63 61 56 58 62 63 60 60 57 55 55 71 68 64 61 55 51 51 50 46 44 44 45 43 41
69 73 78 86 88 92 94 96 96 97 97 98 97 97 93 81 72 67 64 62 66 67 68 65 62 60 59 56 70 79 69 64 61 57 53 51 51 47 46 47 46 44 43 41
73 77 82 88 92 93 95 97 97 97 97 97 98 97 90 82 74 66 63 66 66 68 66 68 62 57 67 88 81 70 65 62 58 53 52 52 49 49 49 48 46 44 42 40
76 79 82 89 94 95 96 96 97 96 97 97 97 97 89 69 62 61 64 68 71 70 66 62 68 93 91 82 74 68 65 61 55 55 54 51 50 50 48 46 44 42 40 35

GFSNGP_prec_cthk_135.txt.gz
RH
66 67 65 65 66 67 67 61 74 39 44 42 40 40 40 46 49 50 53 64 69 72 71 69 69 50 45 36 35 35 33 33 37 36 35 35 38 51 63 66 76 84 90 96
72 67 72 67 62 64 70 65 57 48 39 35 45 52 53 54 61 66 71 73 74 74 68 57 48 39 34 39 30 25 24 22 21 21 22 21 21 22 22 25 35 54 59 63
76 76 77 66 60 62 54 49 47 45 35 40 47 53 58 68 73 79 82 83 83 73 61 57 45 39 24 26 24 26 23 19 15 14 13 12 11 11 10 10 11 13 16 20
79 75 75 52 47 45 47 45 46 41 39 52 56 61 67 71 76 84 89 87 76 65 51 48 38 31 26 25 22 15 16 16 14 14 13 12 12 12 11 11 10 10 9 8
80 78 65 52 51 56 55 44 46 48 57 61 64 68 70 75 80 84 89 80 67 57 46 46 37 28 30 21 24 18 16 16 15 15 14 14 13 12 12 11 11 10 10 10
91 93 78 52 55 59 57 59 46 58 60 62 65 68 69 75 82 88 83 72 63 52 48 44 32 35 31 22 17 16 17 17 16 16 15 15 14 13 13 12 12 11 11 10
87 85 65 57 60 62 71 58 51 51 60 65 66 66 68 75 84 86 78 68 58 50 48 36 37 34 23 16 16 18 17 17 18 17 16 16 14 14 14 14 13 13 12 12
82 92 76 64 64 69 68 66 62 63 61 67 69 69 70 76 84 83 77 66 53 51 40 37 44 30 20 17 18 18 17 17 18 17 16 15 15 16 17 17 17 17 15 14
67 61 66 67 65 71 75 73 70 61 61 61 65 68 71 77 82 82 72 59 50 46 38 46 35 29 18 18 18 18 18 18 17 17 16 16 16 18 19 19 19 20 20 20
57 52 70 72 74 74 76 79 75 67 65 59 57 62 69 76 81 80 65 50 48 49 49 38 34 26 19 19 19 18 18 18 17 16 17 18 17 18 20 23 23 22 24 23
46 59 76 72 72 77 82 82 77 73 67 60 55 57 65 75 80 80 64 53 47 43 40 38 33 24 20 19 19 18 18 17 17 17 17 19 19 20 22 29 32 30 26 29
61 73 75 73 74 79 81 79 76 72 65 59 58 60 62 71 80 80 68 55 53 47 42 38 33 26 21 19 19 18 18 18 18 18 18 18 20 21 21 25 27 28 31 31
68 72 75 75 72 72 74 75 72 69 58 51 56 59 61 68 78 80 69 54 50 49 43 43 40 32 26 20 19 19 19 20 21 21 22 21 21 22 25 27 27 26 24 28
67 66 64 62 66 68 65 60 52 43 43 48 53 61 65 68 72 79 70 58 49 47 43 39 36 30 27 23 20 21 23 23 24 25 24 23 23 25 28 28 29 28 28 27
60 60 46 41 40 39 38 37 37 39 42 46 52 60 67 72 74 82 73 62 56 49 48 46 42 38 32 30 28 25 25 27 28 27 27 26 25 27 31 32 32 31 30 30
46 40 36 35 33 31 31 33 38 45 49 54 61 66 71 79 84 89 79 66 56 49 48 44 43 41 39 35 31 30 30 30 31 31 30 30 29 30 33 35 35 33 34 37
30 32 30 28 27 27 31 36 43 52 64 67 71 77 82 86 96 95 82 68 59 55 53 51 50 45 43 40 39 35 33 33 33 33 32 32 32 34 36 37 38 41 43 41
34 35 33 31 31 34 39 43 53 63 76 78 78 87 87 90 96 93 79 70 66 66 60 56 52 49 46 44 42 41 39 37 36 37 35 35 36 40 42 46 48 46 44 41
38 36 35 37 38 42 48 59 73 83 85 83 90 97 98 95 95 84 79 74 71 61 56 55 54 52 50 49 48 46 44 44 44 43 40 41 47 51 52 52 50 47 45 42
40 39 38 39 52 61 67 73 79 85 83 90 96 97 97 97 91 87 83 78 69 59 57 57 56 54 53 52 53 53 52 50 47 46 47 52 54 54 56 54 50 47 44 41
39 44 49 55 62 65 70 73 75 81 89 94 97 97 97 97 96 92 84 76 68 63 60 57 55 58 58 58 58 55 53 52 51 55 57 56 56 60 59 53 49 47 45 43
48 52 57 62 65 68 73 77 77 84 92 95 97 97 97 97 96 91 84 74 64 58 59 59 59 58 60 62 60 57 56 55 60 58 58 60 63 62 56 51 50 48 44 41
56 59 62 65 68 72 77 82 83 87 91 93 96 97 97 97 97 91 83 77 74 66 60 61 63 63 62 63 61 62 61 58 59 62 66 66 64 58 53 52 49 46 43 44
62 63 64 67 71 75 81 87 88 92 93 94 95 97 97 97 97 95 83 70 67 68 65 63 64 66 67 68 67 61 56 62 68 68 68 66 60 55 54 52 49 47 48 47
65 65 66 69 74 80 86 89 91 92 94 95 96 97 97 98 97 88 80 74 70 66 67 69 72 73 71 66 62 60 69 75 70 69 68 63 59 57 54 52 50 50 48 45
68 70 72 75 79 81 86 90 92 93 95 96 96 97 97 96 88 80 78 77 75 74 73 77 76 74 69 63 70 82 80 72 71 69 65 61 58 56 54 52 51 47 45 42
70 73 75 77 78 82 87 91 93 93 94 95 95 96 94 89 88 83 74 70 71 72 77 78 76 67 71 90 89 82 76 73 69 66 63 60 58 56 53 50 47 45 41 38

GFSNGP_prec_cthk_141.txt.gz
RH
62 61 70 69 64 61 63 53 65 49 49 39 44 53 46 43 41 41 41 45 54 55 60 62 62 66 54 49 53 46 34 29 28 23 18 16 16 17 24 23 23 27 24 29
78 64 66 64 57 59 58 52 55 55 44 42 44 41 39 39 36 39 47 55 57 60 64 64 70 56 44 41 36 41 37 28 21 20 15 13 13 14 13 15 13 15 14 11
87 74 71 68 55 48 44 45 54 51 38 39 44 40 39 39 44 51 57 61 62 66 67 70 71 56 45 38 34 29 26 28 24 17 14 14 14 13 13 13 12 11 12 12
74 74 83 53 49 49 52 47 44 43 40 41 41 44 43 48 54 59 63 64 67 68 73 75 68 60 45 46 37 34 27 21 18 16 15 15 15 15 15 14 13 12 11 10
79 74 60 49 50 45 45 36 40 42 42 44 46 45 45 53 58 62 64 66 66 73 79 75 64 57 48 38 36 31 37 27 19 16 16 17 17 17 18 19 18 15 13 12
74 73 65 43 48 45 44 44 42 41 41 46 47 48 64 63 61 63 64 64 70 78 79 72 59 55 45 33 32 32 22 23 24 20 18 18 22 22 20 24 25 26 22 13
61 59 48 47 52 51 64 54 47 44 46 52 54 60 66 65 63 63 65 68 73 74 72 61 52 49 38 34 34 30 28 19 18 18 18 19 25 28 27 27 27 28 29 26
47 49 48 48 57 60 58 55 49 47 54 56 62 68 68 65 58 60 64 69 69 68 64 56 50 50 41 32 38 26 28 22 19 19 19 21 24 27 28 30 31 30 30 30
53 55 56 57 55 52 51 45 48 53 61 60 62 70 75 70 62 60 61 65 65 63 60 55 48 51 40 38 42 29 27 22 19 20 22 27 30 29 29 30 33 34 34 32
58 53 54 54 50 48 50 51 45 53 66 63 64 72 81 76 66 64 64 62 60 59 58 52 53 50 38 43 38 31 27 22 21 24 29 30 31 30 29 30 32 33 33 34
46 47 47 43 46 41 42 49 50 59 65 70 73 81 82 76 71 67 61 63 62 57 54 52 53 43 40 53 40 33 28 24 23 26 27 23 23 28 30 24 28 34 34 35
54 50 46 47 50 52 45 51 59 64 66 77 84 86 81 77 73 71 69 63 60 59 52 50 50 47 48 45 39 36 33 32 33 31 31 32 31 23 21 23 24 25 27 31
45 46 39 37 36 42 50 56 60 66 72 78 79 77 74 70 65 62 57 58 60 59 50 48 53 50 50 48 41 44 41 38 35 34 31 31 31 33 35 34 33 31 30 32
43 49 46 47 50 54 60 64 66 71 67 66 64 59 50 44 42 44 47 53 59 65 59 53 54 55 52 49 47 45 44 40 39 39 39 40 39 36 37 41 38 41 39 37
50 50 52 54 58 63 63 62 56 39 37 36 36 35 37 43 45 51 55 57 59 65 67 64 60 71 65 58 54 43 40 41 46 44 43 42 43 42 43 44 47 47 47 50
53 50 47 46 52 58 59 43 34 32 30 29 31 34 40 45 48 58 64 71 75 76 75 76 74 60 73 60 52 56 54 50 48 46 42 47 47 48 49 51 52 52 55 48
54 46 47 51 55 50 31 30 29 29 31 34 36 40 45 51 60 69 80 85 88 87 84 77 75 64 54 60 58 53 50 48 51 54 53 51 51 53 56 60 58 61 66 58
60 63 64 69 53 36 32 32 32 33 36 39 44 52 61 68 81 84 83 85 89 92 92 72 72 65 58 59 66 68 67 61 58 61 59 58 62 56 58 61 61 69 70 66
71 77 78 60 42 36 34 34 37 38 41 50 58 64 68 74 79 85 95 97 95 97 92 75 77 73 70 66 68 67 62 61 65 64 63 55 54 59 66 66 70 69 68 70
81 78 61 51 38 36 37 37 41 50 55 58 63 65 70 78 84 91 94 98 98 98 93 84 78 72 71 74 71 71 69 74 70 65 67 69 71 68 68 63 65 67 74 72
75 52 37 37 36 37 42 46 53 55 56 60 65 66 72 80 85 89 95 96 97 97 93 77 77 81 84 78 73 83 79 73 74 72 72 70 65 71 73 71 72 74 74 72
41 39 40 42 45 47 49 53 55 56 58 63 67 69 74 80 84 88 93 96 96 91 86 91 91 85 80 78 85 81 80 74 76 77 75 70 74 77 72 74 73 75 70 69
44 45 48 50 51 53 55 56 57 59 62 66 70 74 78 81 85 89 92 94 97 97 92 89 86 87 84 82 82 76 78 79 80 74 72 78 73 70 77 80 74 67 64 62
50 53 55 57 57 58 59 60 63 64 67 68 71 77 82 85 88 90 93 95 93 93 91 92 88 81 76 78 79 81 83 80 72 74 72 67 68 77 78 71 68 66 62 60
56 57 59 59 61 63 64 66 68 69 71 73 74 78 82 86 89 91 92 95 96 90 95 85 79 80 82 80 84 82 78 78 78 73 68 76 81 79 72 69 66 62 59 55
61 63 63 64 67 68 68 70 72 74 76 78 80 81 83 87 89 90 92 93 90 95 95 83 80 84 87 86 87 87 87 80 72 75 86 83 79 73 69 65 60 59 57 54
67 66 66 68 71 70 69 71 73 75 77 78 80 82 83 86 88 90 93 93 92 92 90 86 86 90 91 90 90 86 80 80 89 89 86 78 71 68 66 62 60 56 54 50

GFSNGP_prec_cthk_147.txt.gz
RH
68 63 60 58 53 53 60 60 67 59 56 51 59 58 55 54 49 45 45 45 42 41 40 43 45 49 48 48 48 51 48 44 42 34 24 20 18 19 15 12 11 13 17 14
76 63 62 66 55 61 66 66 64 68 58 56 60 59 51 49 47 42 41 39 38 36 40 46 50 51 52 50 49 49 49 47 37 30 25 16 15 14 13 12 11 11 11 11
77 63 73 83 52 59 57 55 64 71 56 61 60 53 48 47 42 38 38 37 38 37 42 50 55 55 53 50 55 52 42 42 32 27 22 22 18 17 14 13 13 13 14 13
83 70 88 51 54 58 60 58 61 60 53 57 54 54 49 43 38 41 41 40 39 42 48 53 57 56 53 56 60 56 43 38 32 29 25 23 24 19 17 16 15 16 15 16
90 91 73 52 57 58 63 55 58 57 53 58 52 49 45 40 43 44 42 45 46 48 54 58 56 56 59 62 67 59 48 40 36 35 25 20 19 21 20 20 19 19 17 17
98 97 94 55 58 57 63 54 54 53 54 50 42 43 42 42 44 46 47 47 49 52 58 58 56 59 65 70 65 60 52 47 39 35 31 27 25 25 28 25 25 24 19 20
93 94 81 57 63 61 70 59 54 50 47 42 41 46 46 45 44 46 48 49 52 55 54 57 56 61 65 62 60 57 53 43 44 42 48 33 32 29 30 30 31 28 24 21
95 98 87 63 62 64 59 57 51 48 46 46 46 45 40 40 39 42 48 53 58 60 60 61 61 60 57 56 55 54 48 45 36 35 38 37 36 37 37 33 33 37 29 21
81 77 60 59 62 63 62 62 56 52 48 43 43 43 37 40 43 44 48 57 64 67 66 67 67 58 47 47 48 52 49 45 40 35 44 41 32 29 30 32 33 35 27 23
70 58 65 63 67 63 68 73 65 59 53 51 48 38 36 40 42 48 53 63 73 73 71 72 72 62 47 36 38 41 51 52 42 42 48 38 44 41 32 30 30 28 25 24
66 62 61 65 69 63 66 84 81 72 62 48 39 38 43 42 43 52 67 79 80 76 75 76 72 63 53 42 35 33 42 50 45 43 51 48 37 39 35 30 31 30 26 25
70 62 65 70 69 61 58 63 58 54 49 44 35 39 42 43 51 66 76 78 76 75 71 66 57 49 43 38 35 34 42 49 44 48 56 49 41 38 36 33 31 31 29 27
64 68 67 65 58 60 62 57 52 46 34 34 38 43 50 61 69 68 55 51 49 48 45 39 39 41 40 40 35 35 42 43 47 55 62 51 48 48 47 44 41 38 35 32
49 50 52 57 55 52 47 50 56 39 42 47 49 50 56 58 47 36 32 31 32 35 39 42 43 45 47 43 41 38 40 46 57 65 67 57 54 53 50 48 48 46 42 39
56 56 53 53 55 53 40 38 43 47 51 52 57 60 60 39 32 30 30 31 33 35 40 46 52 56 58 57 52 54 52 54 56 62 67 63 55 53 52 54 54 53 52 49
61 62 59 54 48 47 47 47 51 44 46 50 58 55 37 32 30 31 33 35 39 45 46 53 62 73 72 69 67 67 60 58 56 65 61 61 63 58 57 56 54 53 57 58
63 58 51 49 55 62 57 47 44 45 46 51 48 33 29 31 33 35 38 43 51 53 55 62 68 74 79 84 71 68 67 63 73 65 64 69 64 58 55 55 59 59 59 65
70 79 69 75 71 62 51 56 56 56 56 54 36 34 33 34 37 40 50 55 58 58 64 72 76 82 93 95 93 89 79 71 87 77 68 73 76 77 72 63 62 70 67 67
90 77 64 60 59 58 64 70 72 72 68 47 36 36 37 39 49 54 56 59 60 62 71 77 80 86 92 93 94 88 85 79 72 85 85 69 57 57 61 71 71 65 72 73
70 71 77 75 69 71 77 81 84 79 56 40 36 39 47 52 56 58 60 63 65 68 73 77 80 84 89 91 92 90 82 74 71 67 84 84 79 67 65 72 76 80 75 76
74 78 80 79 80 81 80 83 78 54 38 40 45 49 52 55 57 59 62 66 69 70 73 76 81 83 88 90 87 86 81 85 82 78 77 73 70 75 77 91 85 76 78 81
87 89 86 85 83 76 66 57 40 42 46 48 49 51 54 56 58 61 64 66 69 71 75 78 81 83 82 83 89 93 89 89 93 89 92 89 88 85 94 86 78 84 82 83
85 85 81 74 65 55 48 46 47 49 51 52 54 56 57 58 61 63 64 65 67 70 74 78 82 84 85 86 88 85 87 97 97 99 98 91 89 94 85 87 90 82 85 86
67 60 54 51 49 50 51 53 54 55 56 57 59 60 62 62 64 66 66 67 69 70 73 77 80 78 81 84 90 96 97 97 98 93 90 94 91 86 92 87 83 91 88 81
49 50 52 54 55 57 57 58 59 62 64 64 64 68 70 68 68 69 69 70 71 73 73 74 77 83 89 92 94 96 97 95 91 90 94 89 89 91 84 87 92 87 78 72
54 55 57 59 62 64 67 69 70 68 66 66 70 72 71 71 70 71 70 71 72 72 74 77 81 85 88 89 91 91 88 89 93 94 94 94 86 87 95 95 82 76 73 70
62 67 70 71 72 72 71 71 71 70 70 72 71 70 70 70 69 69 69 68 70 71 74 77 80 83 81 82 85 86 86 89 93 95 89 88 96 97 87 80 77 73 70 65

GFSNGP_prec_cthk_150.txt.gz
RH
86 89 80 68 61 60 62 64 67 58 54 55 59 61 64 65 61 63 63 59 56 54 50 44 41 40 41 40 43 44 44 45 46 44 40 33 21 18 17 14 14 13 13 12
84 78 78 75 67 65 66 65 64 62 55 56 59 60 64 66 66 62 56 54 52 48 45 43 41 42 44 45 46 47 42 46 47 46 41 28 18 15 16 15 13 14 15 15
92 79 80 79 55 60 60 59 61 65 51 57 57 64 66 64 64 59 56 52 47 43 41 42 44 47 48 49 50 49 46 49 47 48 38 29 21 23 19 21 17 15 15 16
85 83 95 56 52 55 54 52 57 53 49 50 55 59 60 59 59 56 52 46 42 41 44 45 49 49 51 53 52 51 52 53 44 42 32 28 25 23 24 21 18 16 16 18
97 96 79 57 51 54 60 44 51 52 53 56 56 58 59 56 53 51 45 39 39 42 45 47 50 52 53 54 54 56 58 58 48 42 35 31 30 29 27 24 21 18 18 24
98 95 92 55 47 50 64 51 49 48 52 54 55 61 60 53 48 44 41 41 41 43 46 47 48 48 52 58 55 55 57 59 54 46 43 40 41 33 31 28 27 24 20 23
91 97 76 54 53 56 74 44 47 50 52 57 60 56 48 47 46 43 39 39 41 42 44 48 49 50 57 61 56 51 52 55 57 49 56 47 50 49 38 37 35 32 23 21
98 98 85 58 67 60 61 54 46 50 54 57 55 51 48 47 39 39 40 41 40 42 46 48 51 56 64 65 55 47 46 49 53 54 44 44 49 54 57 46 43 36 30 23
79 74 73 70 66 58 65 61 55 53 55 56 60 56 53 43 42 37 35 38 42 46 50 54 58 64 69 68 58 50 39 40 47 49 50 44 41 45 49 46 43 37 31 25
80 69 71 69 69 65 61 61 61 61 63 67 69 68 57 52 34 35 38 41 48 54 60 67 72 73 76 73 62 55 45 39 38 51 51 54 50 45 51 54 44 34 29 25
65 69 72 72 67 66 63 60 59 62 66 71 76 74 62 39 37 41 41 49 58 70 75 74 77 79 80 68 53 44 34 32 33 42 54 53 48 53 61 44 40 43 39 33
73 69 74 73 72 72 66 63 58 54 52 65 70 50 41 37 36 41 47 56 71 72 65 65 63 57 53 43 34 33 32 31 36 42 52 51 45 52 51 45 41 39 39 37
62 68 71 70 68 65 63 60 56 53 56 50 50 44 39 41 47 53 55 62 58 44 40 36 38 42 44 39 37 36 36 34 36 42 49 52 53 63 56 53 47 45 43 41
62 64 61 61 62 64 60 56 58 55 52 50 54 47 44 50 52 47 50 47 33 31 31 33 37 41 43 40 41 40 42 40 43 45 47 55 62 73 64 57 57 54 47 44
37 53 55 53 55 55 52 53 50 49 41 39 44 46 50 54 53 53 40 29 28 29 31 34 40 43 43 45 52 49 48 54 49 55 59 59 60 65 74 61 56 56 55 55
44 46 58 53 51 56 55 51 49 49 43 44 44 45 48 49 53 38 27 27 28 32 35 42 48 52 55 58 59 61 62 64 65 59 61 57 60 65 61 74 63 56 58 59
62 60 56 56 59 63 62 54 57 54 42 39 40 43 43 46 40 29 28 31 35 38 46 52 55 57 64 71 72 71 82 79 76 73 71 71 72 68 59 52 63 65 65 60
69 70 68 62 62 66 63 61 67 54 46 48 53 52 48 43 32 31 33 36 43 50 52 55 57 60 69 75 77 82 86 82 83 81 81 89 77 75 87 86 82 68 64 71
64 68 69 78 85 80 79 79 67 57 62 64 66 65 55 42 34 34 41 49 53 55 57 57 60 64 69 74 79 83 88 91 87 77 85 92 80 74 68 68 67 70 83 75
76 77 80 84 88 82 73 62 65 72 74 73 72 67 50 35 39 46 50 53 57 60 59 63 65 67 71 76 79 83 87 90 87 83 77 85 92 80 74 74 68 68 84 87
80 80 77 76 85 84 80 78 80 80 75 76 70 47 39 45 48 50 53 57 60 64 67 69 70 72 75 80 83 85 87 89 84 81 79 77 87 88 78 72 77 97 89 85
75 76 80 86 88 86 86 85 81 72 63 57 44 46 48 49 51 54 58 62 66 68 70 71 72 74 77 81 84 87 86 81 81 85 85 81 81 83 89 91 99 90 90 94
81 84 90 91 89 85 77 68 61 56 50 47 49 50 52 53 55 58 63 67 67 67 68 69 71 73 76 79 80 80 85 89 87 95 97 99 99 96 97 98 94 97 93 88
58 63 78 81 71 69 67 59 50 49 51 53 54 54 54 56 59 65 70 70 67 69 69 71 72 74 74 77 79 82 82 82 91 97 99 98 95 98 98 95 97 95 94 98
51 48 48 49 50 51 53 55 56 56 57 59 62 62 62 61 65 70 70 69 69 70 72 72 73 74 73 73 76 80 85 93 95 97 95 95 98 97 96 98 93 94 99 94
54 52 54 56 57 57 60 64 67 69 69 69 68 67 67 68 69 68 68 68 69 70 72 73 72 71 72 77 83 86 88 90 89 88 91 94 95 98 94 92 97 97 85 80
57 58 61 67 69 69 70 71 72 72 71 71 70 70 69 68 67 68 70 72 73 74 75 76 78 80 83 86 88 89 89 89 91 94 96 97 93 91 97 97 89 82 80 75

GFSNGP_prec_cthk_153.txt.gz
RH
85 79 80 82 84 77 82 82 87 76 73 66 61 60 62 62 60 56 58 60 65 66 63 61 58 53 45 41 40 40 40 42 40 39 37 40 39 35 26 19 17 15 15 15
93 84 84 93 85 81 82 76 72 63 60 59 60 65 69 62 62 61 59 66 68 66 67 62 56 47 43 43 42 41 40 45 42 38 37 44 45 38 24 17 18 17 15 15
81 81 90 96 69 81 78 77 72 70 58 61 59 63 66 63 63 60 63 66 66 68 64 59 49 44 46 44 44 42 43 46 45 39 42 48 48 35 24 19 21 23 20 18
94 89 97 56 58 64 70 69 69 60 55 55 56 60 62 64 62 59 63 63 63 61 58 50 44 44 45 45 45 44 45 49 46 45 43 45 45 34 28 25 24 27 22 18
97 94 77 51 54 64 68 62 56 54 45 45 46 51 53 57 59 58 57 54 54 53 48 43 45 46 48 47 46 45 46 50 47 50 49 46 42 34 33 31 27 28 24 21
98 95 88 53 52 57 67 64 48 46 45 49 48 53 54 51 49 49 51 47 45 44 43 42 45 47 47 45 45 49 49 51 47 49 52 53 48 47 43 41 36 32 28 24
93 96 79 50 54 61 70 47 46 48 47 48 48 50 50 52 51 48 47 45 43 40 41 44 47 44 46 46 48 50 54 52 49 46 49 59 62 58 49 55 52 37 30 27
96 96 85 51 59 60 50 46 48 50 50 53 53 53 54 50 47 47 46 42 39 38 41 42 44 45 47 52 55 59 59 53 49 42 43 53 52 57 64 61 66 56 36 33
84 79 69 57 59 60 57 52 50 51 56 56 57 56 54 51 51 53 49 43 35 35 38 41 45 49 55 64 70 67 62 58 54 50 50 41 49 52 50 51 50 50 46 40
87 74 74 67 58 57 60 64 60 56 56 58 60 61 61 62 62 57 51 41 34 37 41 46 53 62 71 73 76 73 65 60 51 41 33 41 49 50 59 56 50 45 51 47
80 71 72 63 63 66 63 58 59 59 60 64 62 65 66 66 66 61 52 41 36 39 47 55 67 70 67 69 76 70 50 38 31 28 28 32 44 57 54 55 57 58 51 41
72 68 67 63 63 66 65 63 59 58 60 60 58 56 56 57 65 48 35 37 40 44 49 61 65 54 53 50 47 43 36 33 33 29 33 41 44 52 51 58 53 52 52 49
67 67 65 68 68 69 67 64 62 62 60 61 55 54 59 51 49 46 41 45 46 49 56 56 43 36 37 40 44 42 36 32 33 35 37 36 42 49 47 47 59 61 58 52
42 45 47 46 50 60 64 64 61 61 56 56 59 60 53 52 54 54 47 46 45 49 51 42 34 35 38 41 46 42 38 39 39 41 40 45 44 41 46 51 59 61 58 56
23 28 30 32 36 51 54 59 59 59 57 56 54 51 46 50 55 50 50 49 49 44 36 30 32 35 38 44 46 43 43 46 48 52 53 52 56 55 57 58 67 75 62 51
31 41 38 36 34 37 56 56 52 51 54 52 53 53 51 51 50 50 51 49 40 33 29 30 33 37 42 47 48 48 51 56 56 60 68 67 69 71 72 66 67 68 67 61
39 35 37 40 45 51 57 63 63 59 60 59 58 52 44 45 46 47 47 45 36 32 34 36 40 46 51 53 54 55 58 62 64 67 74 77 78 71 72 72 73 71 66 67
42 51 66 65 62 61 64 68 73 70 72 77 53 49 48 48 48 48 48 43 37 37 40 45 52 54 56 59 63 64 65 64 69 76 78 80 80 77 76 80 83 84 75 63
53 59 72 79 79 74 72 75 77 85 87 75 68 71 72 67 64 62 55 41 38 44 52 55 57 58 61 65 68 69 69 72 76 79 81 86 89 96 90 81 82 81 82 80
63 64 69 77 81 82 89 86 91 93 82 75 73 74 75 73 71 67 46 41 49 53 56 58 61 64 68 70 73 75 76 78 80 84 88 90 90 98 90 83 79 73 71 70
81 80 81 83 91 93 93 91 86 80 79 79 81 79 73 71 71 54 47 50 51 55 58 61 65 69 72 75 76 76 78 80 83 86 87 85 83 88 91 98 90 85 82 95
70 77 80 82 83 84 89 85 83 84 84 83 75 66 63 63 52 48 50 52 56 59 62 68 70 72 75 77 77 77 79 80 82 82 82 81 80 81 85 88 85 88 98 97
71 74 80 85 89 93 94 92 91 87 78 72 67 64 58 50 51 53 55 58 61 63 68 72 73 75 77 77 77 79 81 77 74 74 79 84 88 92 94 97 99 99 99 99
73 67 66 72 83 89 89 83 80 78 72 64 59 52 52 54 55 57 60 61 63 68 71 72 74 76 78 79 79 79 76 77 81 81 88 93 94 96 98 99 99 99 99 99
69 63 54 51 54 54 53 54 53 54 55 56 55 55 57 61 64 64 64 64 67 68 69 71 72 74 75 75 76 78 78 78 79 88 91 93 94 94 95 97 98 99 99 99
70 66 57 53 55 56 58 58 59 60 63 66 66 65 64 65 66 67 67 65 65 66 67 69 71 74 76 75 74 77 81 86 92 94 95 95 97 98 98 98 97 96 98 99
67 65 60 59 60 65 68 70 71 71 71 71 70 69 67 66 66 65 65 66 68 70 73 76 77 79 81 85 88 92 94 97 98 96 96 98 99 99 98 94 98 99 94 88

GFSNGP_prec_cthk_156.txt.gz
RH
96 91 87 87 87 84 89 88 93 75 78 70 78 74 68 66 65 63 61 62 61 59 58 63 68 71 69 64 58 47 41 36 35 37 33 34 36 36 35 40 37 31 20 16
96 90 94 93 82 84 83 77 82 89 75 74 70 72 66 65 66 66 64 62 60 62 63 67 67 70 67 61 51 45 40 37 37 37 34 35 37 39 44 44 37 28 19 17
96 87 93 95 70 72 74 75 75 73 59 67 67 69 66 65 62 60 62 64 66 67 66 64 65 64 61 53 48 43 39 38 36 35 39 37 39 40 49 42 37 28 21 21
97 93 97 63 57 60 63 63 66 59 59 68 66 63 62 63 62 55 58 60 64 65 61 62 59 58 52 46 44 42 42 37 36 37 41 42 41 41 46 44 38 30 27 25
98 95 81 58 49 55 63 57 50 57 59 61 63 63 59 56 56 58 61 60 58 57 56 53 51 48 45 45 42 42 38 35 34 39 42 47 43 43 46 44 39 35 32 30
97 97 92 49 42 48 64 54 44 51 55 61 61 62 53 51 51 53 52 50 49 48 47 44 42 42 41 43 44 40 38 36 36 42 46 50 46 46 48 51 48 41 40 35
90 85 72 54 54 56 71 41 40 46 52 58 58 54 53 54 54 49 47 46 45 42 41 43 41 40 41 41 40 39 39 40 44 51 51 49 46 48 58 62 58 53 51 50
85 86 80 61 64 58 47 47 44 49 50 54 57 57 55 54 52 51 48 44 42 43 43 42 39 37 38 40 40 43 47 52 57 56 56 52 50 53 57 47 58 63 55 56
86 71 62 61 55 56 56 52 51 54 55 56 58 58 60 60 56 50 47 44 48 48 45 39 35 37 41 43 47 55 63 60 58 59 59 53 47 44 38 43 51 46 46 43
94 70 65 65 68 67 65 60 59 61 63 64 65 62 63 59 56 57 54 52 50 46 46 45 42 43 46 51 58 67 63 59 57 52 42 31 30 34 41 47 49 51 54 46
97 79 75 76 70 72 68 62 63 63 65 68 68 68 66 65 61 56 54 55 53 51 44 41 42 47 52 58 64 60 62 54 40 33 27 28 31 33 35 43 50 49 49 49
87 79 78 70 70 66 68 69 68 64 64 63 64 64 65 59 53 49 45 48 47 48 50 43 44 50 55 61 55 48 45 39 33 28 28 29 32 34 40 46 51 45 44 43
71 68 65 65 64 62 63 64 65 65 66 64 62 62 61 57 51 47 47 47 47 46 47 47 51 53 56 50 38 38 41 41 36 32 32 32 35 38 38 43 52 51 46 49
53 53 48 49 50 51 52 57 65 71 68 65 63 61 58 56 53 51 52 53 50 53 50 48 45 51 48 35 35 38 41 45 40 35 36 40 42 44 48 47 44 47 49 52
24 30 31 29 29 36 45 48 49 54 61 66 65 64 61 59 54 49 52 53 51 53 51 46 49 47 35 32 35 40 45 48 44 40 40 44 51 53 48 53 60 58 55 67
19 20 22 24 26 31 39 42 52 60 64 62 63 62 54 51 56 59 54 53 55 50 45 45 45 37 32 34 39 44 50 49 46 46 49 54 60 60 56 64 69 68 64 62
27 29 33 34 40 41 40 42 41 55 73 71 64 56 54 58 61 59 54 51 49 46 43 43 41 34 35 38 44 51 52 51 50 53 58 62 62 66 66 74 78 73 72 65
49 44 44 38 42 54 52 41 45 57 81 81 76 69 64 57 56 58 56 53 51 50 50 48 44 39 40 46 51 55 56 57 59 60 62 68 72 75 78 82 80 82 80 73
48 47 49 57 70 72 66 62 63 73 82 85 82 78 67 68 68 71 70 71 69 68 61 52 46 49 53 54 58 61 66 69 67 65 68 77 82 81 84 83 86 89 95 97
53 53 58 61 71 75 79 81 76 81 87 88 92 86 80 84 86 82 79 74 75 76 68 56 56 56 55 58 63 68 71 71 72 73 78 82 84 88 91 93 95 92 91 85
73 72 73 69 74 77 88 92 96 94 95 97 90 87 86 83 82 81 77 74 78 79 61 59 59 59 61 64 71 75 76 76 76 78 80 83 86 89 91 93 92 90 84 83
70 75 80 85 84 87 93 97 98 97 91 86 88 89 90 87 76 70 67 73 67 58 59 61 62 65 67 73 76 78 77 78 79 81 83 85 85 83 81 83 89 96 92 89
76 76 73 79 85 88 91 91 91 91 92 91 92 87 78 74 71 71 66 59 58 61 63 65 67 69 74 77 78 78 79 81 83 83 82 80 80 81 82 82 85 87 91 97
71 73 82 77 73 81 91 94 92 90 87 83 79 79 74 69 65 60 59 60 62 66 68 69 71 74 75 75 76 77 79 80 77 75 76 80 83 87 91 94 95 95 96 98
67 65 69 71 65 64 67 74 80 74 69 68 66 61 58 59 60 62 64 64 65 66 68 70 71 70 70 71 74 77 77 75 78 80 82 88 92 94 96 97 98 99 99 99
63 64 67 68 63 57 56 57 59 60 61 61 61 63 65 66 66 66 68 68 67 65 64 65 67 69 71 74 76 78 81 85 85 89 94 95 96 97 98 99 99 99 99 99
67 68 68 68 65 61 62 65 70 73 74 74 72 70 71 71 71 68 66 64 64 65 66 67 70 72 76 78 81 85 89 92 95 97 97 98 98 99 99 99 98 98 99 99

GFSNGP_prec_cthk_162.txt.gz
RH
73 77 79 80 86 85 98 98 98 96 88 84 86 78 75 75 71 65 63 64 63 63 66 70 73 75 76 71 70 70 73 74 72 66 51 37 32 29 26 23 23 27 29 31
84 76 74 73 67 73 79 86 96 91 78 80 84 66 67 72 70 68 67 68 69 70 72 72 70 69 70 72 74 76 76 74 68 59 44 37 33 29 23 23 25 27 31 36
84 79 74 77 58 65 59 67 73 76 66 74 75 67 68 68 69 71 68 69 71 71 69 71 69 72 73 72 76 76 74 67 62 53 42 36 33 27 24 24 26 28 33 40
82 78 87 77 61 59 63 64 61 56 57 60 61 60 61 63 64 69 73 70 67 68 73 69 73 72 72 74 76 71 64 62 58 49 40 35 32 26 26 26 29 34 36 40
86 79 72 68 68 70 69 57 58 56 54 57 58 52 51 53 61 66 66 67 68 68 71 71 71 71 71 74 72 67 66 63 53 43 36 35 30 27 28 29 36 39 43 41
78 87 84 52 61 65 73 64 50 51 51 51 53 53 45 50 51 53 56 59 65 65 70 69 69 70 70 69 67 65 62 55 46 39 35 32 29 30 33 40 42 47 50 51
79 80 65 46 55 63 67 50 54 52 48 49 47 44 51 48 49 51 57 60 65 69 70 68 71 67 66 63 57 55 55 47 42 36 33 33 34 39 43 44 47 50 53 47
84 87 78 49 59 67 49 57 53 50 47 46 44 47 45 44 43 47 53 56 62 66 65 64 65 62 57 52 49 51 48 40 37 37 37 39 43 45 42 46 45 42 39 33
75 66 63 63 62 64 63 57 52 53 54 52 48 49 49 46 46 49 52 56 57 59 60 60 56 54 48 49 51 47 42 44 43 40 41 43 48 45 47 47 41 33 33 35
73 61 59 59 57 58 62 59 63 61 59 57 55 53 54 53 54 53 56 58 58 59 58 58 58 56 55 53 47 47 48 46 42 43 46 50 49 47 48 35 32 32 35 36
60 58 62 55 58 61 64 65 70 69 67 65 65 65 60 61 62 63 60 62 62 65 64 61 61 59 56 51 47 47 49 48 46 48 51 50 46 33 32 29 32 33 36 36
57 56 56 60 65 70 73 73 73 70 72 70 70 72 71 68 67 67 65 68 68 66 65 60 55 53 51 50 47 48 49 51 51 56 56 53 39 34 32 34 32 33 35 38
59 59 58 60 64 67 76 90 86 83 78 75 74 75 74 72 68 73 78 74 68 61 54 50 49 46 48 49 52 52 54 56 57 57 51 43 37 35 36 35 37 37 38 40
63 71 72 74 75 73 74 81 81 81 80 81 79 78 77 78 76 76 74 69 67 62 59 55 53 54 56 57 59 60 57 55 56 52 49 42 39 37 39 41 41 41 43 44
36 44 51 51 59 56 52 53 59 68 75 77 76 77 77 77 78 77 73 70 67 64 60 54 54 57 58 59 58 56 55 55 51 48 46 45 44 42 43 46 49 51 51 51
23 22 23 24 21 28 33 33 36 41 47 52 60 70 76 81 81 78 74 72 72 70 66 61 58 56 55 57 59 56 53 50 47 46 44 47 49 49 51 53 57 59 59 59
28 29 26 25 25 21 20 22 22 24 31 38 46 56 77 81 82 82 80 80 75 69 65 61 59 57 58 54 53 51 51 48 46 48 47 53 59 58 59 59 63 66 67 69
31 29 29 32 36 38 39 39 39 38 37 36 38 46 54 61 69 78 76 80 77 75 71 65 58 57 58 58 60 58 57 56 54 53 59 67 66 62 65 68 74 75 78 78
32 37 43 40 46 46 44 47 50 49 45 47 51 54 60 64 75 70 72 76 75 71 68 68 69 73 75 74 72 70 69 64 65 66 67 68 66 69 72 79 82 82 85 84
48 53 51 51 52 53 57 61 62 63 64 66 68 63 67 83 85 83 86 81 77 78 81 84 86 82 80 79 77 82 81 69 64 66 69 70 71 73 79 81 83 86 87 88
49 63 69 66 64 65 72 71 70 71 76 85 86 77 81 89 89 91 89 88 88 93 94 92 89 80 78 82 80 74 66 65 70 73 75 75 78 79 80 84 86 86 86 88
55 67 71 70 68 71 74 78 81 82 85 90 92 91 91 94 98 97 97 97 96 96 92 84 81 81 80 72 70 66 68 72 74 75 76 79 79 79 82 83 84 87 88 89
66 69 77 77 69 70 76 80 81 80 86 91 96 98 98 96 94 91 91 90 86 83 83 83 83 79 76 69 71 73 74 74 78 80 78 76 76 78 80 82 85 87 88 89
72 69 68 65 66 68 72 79 84 82 77 87 91 90 92 90 85 79 77 81 82 82 82 78 75 73 74 76 75 76 79 76 74 73 74 74 76 80 83 85 84 83 84 85
72 69 66 63 64 64 66 69 73 74 72 71 72 75 79 80 80 78 78 75 70 67 70 73 74 74 77 80 76 74 72 71 70 71 74 78 81 81 80 80 84 90 93 95
76 70 65 62 61 60 59 60 60 62 63 56 55 56 56 57 59 62 65 68 70 71 74 78 77 74 72 71 70 70 70 72 75 78 78 78 80 84 87 91 95 97 98 98
78 68 66 65 63 61 62 63 62 64 64 60 63 68 70 71 71 71 72 73 73 71 69 69 69 68 67 69 71 73 76 79 79 77 81 84 86 89 94 96 97 98 98 98